Tracking 18942 objects as of 17-Jan-2018
HD Live streaming from Space Station
objects crossing your sky now

FENGYUN 1C DEB

Track FENGYUN 1C DEB now!
10-day predictions


NORAD ID: 30301
Int'l Code: 1999-025ZN
Perigee: 776.9 km
Apogee: 956.2 km
Inclination: 98.6 °
Period: 102.1 minutes
Semi major axis: 7237 km
RCS: 0.0201 m2 (small)
Launch date: May 10, 1999
Source: People's Republic of China (PRC)
Launch site: Taiyaun Space Center, China (TSC)

Note: This is SATELLITE DEBRIS
aabbcc
Your satellite tracking list
Your tracking list is empty




NASA's NSSDC Master Catalog

Two Line Element Set (TLE):
1 30301U 99025ZN  18017.04608701  .00000998  00000-0  54908-3 0  9990
2 30301  98.5758 206.6738 0123829 337.0127 148.3609 14.09983553562866
Source of the keplerian elements: AFSPC